Location: Fernhill
(41.0167°S, 175.6333°E)
Time: 12:33:26
(UTC+00:00)

USA 267 - Pass Details

Date: 08 November 2025
Orbit: 1100 x 1108 km, 123.0° (Epoch: 21 November)

Event Time Altitude Azimuth Distance (km) Brightness Sun altitude
Exits shadow 11:02:39 82° 326° (NW) 1,127 3.1 -30.7°
Maximum altitude 11:02:42 82° 317° (NW) 1,127 3.1 -30.7°
Drops below altitude 10° 11:09:21 10° 228° (SW) 2,993 6.2 -31.0°
Sets 11:11:52 0° 227° (SW) 3,956 7.0 -31.1°
